Terminal Aerodrome Forecast
Issued by NWS Des Moines, IA

Home | Current Version | Previous Version | Text Only | Print | Product List | Glossary On
Versions: 1 2 3 4 5 6 7 8 9 10 11 12 13 14 15 16 17 18 19 20 21 22 23 24 25 26 27 28 29 30 31 32 33 34 35
000
FTUS43 KDMX 181502 AAC
TAFDSM
TAF AMD
KDSM 181502Z 1815/1912 13006KT 2SM BR SCT015
      TEMPO 1815/1816 1/2SM FG VV002
     FM181600 14008KT 3SM BR SCT030
     FM181645 14008KT P6SM FEW060
     FM191000 12006KT 5SM BR SCT080=

USA.gov is the U.S. government's official web portal to all federal, state and local government web resources and services.